owner,sensor,date,latitude,longitude,air_temperature,qcFlag 
ADCP,ioos:station:wmo:42887:1,2009-11-01T00:00:00Z,28.1910,-88.4960,21.1,11111222 
ADCP,ioos:station:wmo:42887:1,2009-11-01T00:20:00Z,28.1910,-88.4960,21.2,11111222 
ADCP,ioos:station:wmo:42887:1,2009-11-01T00:40:00Z,28.1910,-88.4960,21.0,11111222 
ADCP,ioos:station:wmo:42887:1,2009-11-01T01:00:00Z,28.1910,-88.4960,21.0,11111222 
ADCP,ioos:station:wmo:42887:1,2009-11-01T01:20:00Z,28.1910,-88.4960,21.1,11111222 
ADCP,ioos:station:wmo:42887:1,2009-11-01T01:40:00Z,28.1910,-88.4960,21.1,11111222 
ADCP,ioos:station:wmo:42887:1,2009-11-01T02:00:00Z,28.1910,-88.4960,21.0,11111222 
ADCP,ioos:station:wmo:42887:1,2009-11-01T02:20:00Z,28.1910,-88.4960,21.0,11111222 
ADCP,ioos:station:wmo:42887:1,2009-11-01T02:40:00Z,28.1910,-88.4960,21.1,11111222 
ADCP,ioos:station:wmo:42887:1,2009-11-01T03:00:00Z,28.1910,-88.4960,21.2,11111222 
ADCP,ioos:station:wmo:42887:1,2009-11-01T03:20:00Z,28.1910,-88.4960,21.1,11111222 
ADCP,ioos:station:wmo:42887:1,2009-11-01T03:40:00Z,28.1910,-88.4960,21.4,11111222 
ADCP,ioos:station:wmo:42887:1,2009-11-01T04:00:00Z,28.1910,-88.4960,21.3,11111222 
ADCP,ioos:station:wmo:42887:1,2009-11-01T04:20:00Z,28.1910,-88.4960,21.5,11111222 
ADCP,ioos:station:wmo:42887:1,2009-11-01T04:40:00Z,28.1910,-88.4960,21.4,11111222 
ADCP,ioos:station:wmo:42887:1,2009-11-01T05:00:00Z,28.1910,-88.4960,21.4,11111222 
ADCP,ioos:station:wmo:42887:1,2009-11-01T05:20:00Z,28.1910,-88.4960,21.5,11111222 
ADCP,ioos:station:wmo:42887:1,2009-11-01T05:40:00Z,28.1910,-88.4960,21.4,11111222 
ADCP,ioos:station:wmo:42887:1,2009-11-01T06:00:00Z,28.1910,-88.4960,21.3,11111222 
ADCP,ioos:station:wmo:42887:1,2009-11-01T06:20:00Z,28.1910,-88.4960,21.2,11111222 
ADCP,ioos:station:wmo:42887:1,2009-11-01T06:40:00Z,28.1910,-88.4960,21.2,11111222 
ADCP,ioos:station:wmo:42887:1,2009-11-01T07:00:00Z,28.1910,-88.4960,20.6,11111222 
ADCP,ioos:station:wmo:42887:1,2009-11-01T07:20:00Z,28.1910,-88.4960,20.6,11111222 
ADCP,ioos:station:wmo:42887:1,2009-11-01T07:40:00Z,28.1910,-88.4960,20.5,11111222 
ADCP,ioos:station:wmo:42887:1,2009-11-01T08:00:00Z,28.1910,-88.4960,20.6,11111222 
ADCP,ioos:station:wmo:42887:1,2009-11-01T08:20:00Z,28.1910,-88.4960,20.4,11111222 
ADCP,ioos:station:wmo:42887:1,2009-11-01T08:40:00Z,28.1910,-88.4960,20.2,11111222 
ADCP,ioos:station:wmo:42887:1,2009-11-01T09:00:00Z,28.1910,-88.4960,20.3,11111222 
ADCP,ioos:station:wmo:42887:1,2009-11-01T09:20:00Z,28.1910,-88.4960,20.1,11111222 
ADCP,ioos:station:wmo:42887:1,2009-11-01T09:40:00Z,28.1910,-88.4960,20.2,11111222 
ADCP,ioos:station:wmo:42887:1,2009-11-01T10:00:00Z,28.1910,-88.4960,20.3,11111222 
ADCP,ioos:station:wmo:42887:1,2009-11-01T10:20:00Z,28.1910,-88.4960,19.9,11111222 
ADCP,ioos:station:wmo:42887:1,2009-11-01T10:40:00Z,28.1910,-88.4960,20.2,11111222 
ADCP,ioos:station:wmo:42887:1,2009-11-01T11:00:00Z,28.1910,-88.4960,20.2,11111222 
ADCP,ioos:station:wmo:42887:1,2009-11-01T11:20:00Z,28.1910,-88.4960,19.9,11111222 
ADCP,ioos:station:wmo:42887:1,2009-11-01T11:40:00Z,28.1910,-88.4960,20.1,11111222 
ADCP,ioos:station:wmo:42887:1,2009-11-01T12:00:00Z,28.1910,-88.4960,20.3,11111222 
ADCP,ioos:station:wmo:42887:1,2009-11-01T12:20:00Z,28.1910,-88.4960,20.2,11111222 
ADCP,ioos:station:wmo:42887:1,2009-11-01T12:40:00Z,28.1910,-88.4960,20.5,11111222 
ADCP,ioos:station:wmo:42887:1,2009-11-01T13:00:00Z,28.1910,-88.4960,20.9,11111222 
ADCP,ioos:station:wmo:42887:1,2009-11-01T13:20:00Z,28.1910,-88.4960,20.9,11111222 
ADCP,ioos:station:wmo:42887:1,2009-11-01T13:40:00Z,28.1910,-88.4960,21.0,11111222 
ADCP,ioos:station:wmo:42887:1,2009-11-01T14:00:00Z,28.1910,-88.4960,21.2,11111222 
ADCP,ioos:station:wmo:42887:1,2009-11-01T14:20:00Z,28.1910,-88.4960,21.1,11111222 
ADCP,ioos:station:wmo:42887:1,2009-11-01T14:40:00Z,28.1910,-88.4960,21.1,11111222 
ADCP,ioos:station:wmo:42887:1,2009-11-01T15:00:00Z,28.1910,-88.4960,21.1,11111222 
ADCP,ioos:station:wmo:42887:1,2009-11-01T15:20:00Z,28.1910,-88.4960,21.1,11111222 
ADCP,ioos:station:wmo:42887:1,2009-11-01T15:40:00Z,28.1910,-88.4960,20.9,11111222 
ADCP,ioos:station:wmo:42887:1,2009-11-01T16:00:00Z,28.1910,-88.4960,21.0,11111222 
ADCP,ioos:station:wmo:42887:1,2009-11-01T16:20:00Z,28.1910,-88.4960,21.4,11111222 
ADCP,ioos:station:wmo:42887:1,2009-11-01T16:40:00Z,28.1910,-88.4960,21.1,11111222 
ADCP,ioos:station:wmo:42887:1,2009-11-01T17:00:00Z,28.1910,-88.4960,21.0,11111222 
ADCP,ioos:station:wmo:42887:1,2009-11-01T17:20:00Z,28.1910,-88.4960,21.1,11111222 
ADCP,ioos:station:wmo:42887:1,2009-11-01T17:40:00Z,28.1910,-88.4960,21.2,11111222 
ADCP,ioos:station:wmo:42887:1,2009-11-01T18:00:00Z,28.1910,-88.4960,21.4,11111222 
ADCP,ioos:station:wmo:42887:1,2009-11-01T18:20:00Z,28.1910,-88.4960,21.6,11111222 
ADCP,ioos:station:wmo:42887:1,2009-11-01T18:40:00Z,28.1910,-88.4960,21.8,11111222 
ADCP,ioos:station:wmo:42887:1,2009-11-01T19:00:00Z,28.1910,-88.4960,22.3,11111222 
ADCP,ioos:station:wmo:42887:1,2009-11-01T19:20:00Z,28.1910,-88.4960,21.6,11111222 
ADCP,ioos:station:wmo:42887:1,2009-11-01T19:40:00Z,28.1910,-88.4960,21.4,11111222 
ADCP,ioos:station:wmo:42887:1,2009-11-01T20:00:00Z,28.1910,-88.4960,21.5,11111222 
ADCP,ioos:station:wmo:42887:1,2009-11-01T20:20:00Z,28.1910,-88.4960,21.9,11111222 
ADCP,ioos:station:wmo:42887:1,2009-11-01T20:40:00Z,28.1910,-88.4960,22.1,11111222 
ADCP,ioos:station:wmo:42887:1,2009-11-01T21:00:00Z,28.1910,-88.4960,21.8,11111222 
ADCP,ioos:station:wmo:42887:1,2009-11-01T21:20:00Z,28.1910,-88.4960,21.6,11111222 
ADCP,ioos:station:wmo:42887:1,2009-11-01T21:40:00Z,28.1910,-88.4960,22.1,11111222 
ADCP,ioos:station:wmo:42887:1,2009-11-01T22:00:00Z,28.1910,-88.4960,22.0,11111222 
ADCP,ioos:station:wmo:42887:1,2009-11-01T22:20:00Z,28.1910,-88.4960,21.8,11111222 
ADCP,ioos:station:wmo:42887:1,2009-11-01T22:40:00Z,28.1910,-88.4960,21.5,11111222 
ADCP,ioos:station:wmo:42887:1,2009-11-01T23:00:00Z,28.1910,-88.4960,21.4,11111222 
ADCP,ioos:station:wmo:42887:1,2009-11-01T23:20:00Z,28.1910,-88.4960,21.5,11111222 
ADCP,ioos:station:wmo:42887:1,2009-11-01T23:40:00Z,28.1910,-88.4960,21.5,11111222 
ADCP,ioos:station:wmo:42887:1,2009-11-02T00:00:00Z,28.1910,-88.4960,21.6,11111222 
ADCP,ioos:station:wmo:42887:1,2009-11-02T00:20:00Z,28.1910,-88.4960,21.5,11111222 
ADCP,ioos:station:wmo:42887:1,2009-11-02T00:40:00Z,28.1910,-88.4960,21.4,11111222 
ADCP,ioos:station:wmo:42887:1,2009-11-02T01:00:00Z,28.1910,-88.4960,21.3,11111222 
ADCP,ioos:station:wmo:42887:1,2009-11-02T01:20:00Z,28.1910,-88.4960,21.4,11111222 
ADCP,ioos:station:wmo:42887:1,2009-11-02T01:40:00Z,28.1910,-88.4960,21.2,11111222 
ADCP,ioos:station:wmo:42887:1,2009-11-02T02:00:00Z,28.1910,-88.4960,21.2,11111222 
ADCP,ioos:station:wmo:42887:1,2009-11-02T02:20:00Z,28.1910,-88.4960,21.4,11111222 
ADCP,ioos:station:wmo:42887:1,2009-11-02T02:40:00Z,28.1910,-88.4960,21.3,11111222 
ADCP,ioos:station:wmo:42887:1,2009-11-02T03:00:00Z,28.1910,-88.4960,21.6,11111222 
ADCP,ioos:station:wmo:42887:1,2009-11-02T03:20:00Z,28.1910,-88.4960,21.7,11111222 
ADCP,ioos:station:wmo:42887:1,2009-11-02T03:40:00Z,28.1910,-88.4960,21.5,11111222 
ADCP,ioos:station:wmo:42887:1,2009-11-02T04:00:00Z,28.1910,-88.4960,21.7,11111222 
ADCP,ioos:station:wmo:42887:1,2009-11-02T04:20:00Z,28.1910,-88.4960,21.2,11111222 
ADCP,ioos:station:wmo:42887:1,2009-11-02T04:40:00Z,28.1910,-88.4960,21.6,11111222 
ADCP,ioos:station:wmo:42887:1,2009-11-02T05:00:00Z,28.1910,-88.4960,21.8,11111222 
ADCP,ioos:station:wmo:42887:1,2009-11-02T05:20:00Z,28.1910,-88.4960,21.5,11111222 
ADCP,ioos:station:wmo:42887:1,2009-11-02T05:40:00Z,28.1910,-88.4960,21.7,11111222 
ADCP,ioos:station:wmo:42887:1,2009-11-02T06:00:00Z,28.1910,-88.4960,21.8,11111222 
ADCP,ioos:station:wmo:42887:1,2009-11-02T06:20:00Z,28.1910,-88.4960,21.9,11111222 
ADCP,ioos:station:wmo:42887:1,2009-11-02T06:40:00Z,28.1910,-88.4960,22.1,11111222 
ADCP,ioos:station:wmo:42887:1,2009-11-02T07:00:00Z,28.1910,-88.4960,22.0,11111222 
ADCP,ioos:station:wmo:42887:1,2009-11-02T07:20:00Z,28.1910,-88.4960,21.9,11111222 
ADCP,ioos:station:wmo:42887:1,2009-11-02T07:40:00Z,28.1910,-88.4960,21.8,11111222 
ADCP,ioos:station:wmo:42887:1,2009-11-02T08:00:00Z,28.1910,-88.4960,22.0,11111222 
ADCP,ioos:station:wmo:42887:1,2009-11-02T08:20:00Z,28.1910,-88.4960,21.6,11111222 
ADCP,ioos:station:wmo:42887:1,2009-11-02T08:40:00Z,28.1910,-88.4960,21.7,11111222 
ADCP,ioos:station:wmo:42887:1,2009-11-02T09:00:00Z,28.1910,-88.4960,21.6,11111222 
ADCP,ioos:station:wmo:42887:1,2009-11-02T09:20:00Z,28.1910,-88.4960,21.9,11111222 
ADCP,ioos:station:wmo:42887:1,2009-11-02T09:40:00Z,28.1910,-88.4960,21.8,11111222 
ADCP,ioos:station:wmo:42887:1,2009-11-02T10:00:00Z,28.1910,-88.4960,21.6,11111222 
ADCP,ioos:station:wmo:42887:1,2009-11-02T10:20:00Z,28.1910,-88.4960,21.7,11111222 
ADCP,ioos:station:wmo:42887:1,2009-11-02T10:40:00Z,28.1910,-88.4960,21.3,11111222 
ADCP,ioos:station:wmo:42887:1,2009-11-02T11:00:00Z,28.1910,-88.4960,21.5,11111222 
ADCP,ioos:station:wmo:42887:1,2009-11-02T11:20:00Z,28.1910,-88.4960,21.3,11111222 
ADCP,ioos:station:wmo:42887:1,2009-11-02T11:40:00Z,28.1910,-88.4960,21.2,11111222 
ADCP,ioos:station:wmo:42887:1,2009-11-02T12:20:00Z,28.1910,-88.4960,21.3,11111222 
ADCP,ioos:station:wmo:42887:1,2009-11-02T12:40:00Z,28.1910,-88.4960,21.9,11111222 
ADCP,ioos:station:wmo:42887:1,2009-11-02T13:00:00Z,28.1910,-88.4960,22.7,11111222 
ADCP,ioos:station:wmo:42887:1,2009-11-02T13:20:00Z,28.1910,-88.4960,23.1,11111222 
ADCP,ioos:station:wmo:42887:1,2009-11-02T13:40:00Z,28.1910,-88.4960,23.2,11111222 
ADCP,ioos:station:wmo:42887:1,2009-11-02T14:00:00Z,28.1910,-88.4960,22.8,11111222 
ADCP,ioos:station:wmo:42887:1,2009-11-02T14:20:00Z,28.1910,-88.4960,23.1,11111222 
ADCP,ioos:station:wmo:42887:1,2009-11-02T14:40:00Z,28.1910,-88.4960,23.2,11111222 
ADCP,ioos:station:wmo:42887:1,2009-11-02T15:00:00Z,28.1910,-88.4960,22.8,11111222 
ADCP,ioos:station:wmo:42887:1,2009-11-02T15:20:00Z,28.1910,-88.4960,22.8,11111222 
ADCP,ioos:station:wmo:42887:1,2009-11-02T15:40:00Z,28.1910,-88.4960,23.0,11111222 
ADCP,ioos:station:wmo:42887:1,2009-11-02T16:00:00Z,28.1910,-88.4960,22.6,11111222 
ADCP,ioos:station:wmo:42887:1,2009-11-02T16:20:00Z,28.1910,-88.4960,22.9,11111222 
ADCP,ioos:station:wmo:42887:1,2009-11-02T16:40:00Z,28.1910,-88.4960,23.1,11111222 
ADCP,ioos:station:wmo:42887:1,2009-11-02T17:00:00Z,28.1910,-88.4960,23.1,11111222 
ADCP,ioos:station:wmo:42887:1,2009-11-02T17:20:00Z,28.1910,-88.4960,23.3,11111222 
ADCP,ioos:station:wmo:42887:1,2009-11-02T17:40:00Z,28.1910,-88.4960,23.2,11111222 
ADCP,ioos:station:wmo:42887:1,2009-11-02T18:00:00Z,28.1910,-88.4960,23.5,11111222 
ADCP,ioos:station:wmo:42887:1,2009-11-02T18:20:00Z,28.1910,-88.4960,23.5,11111222 
ADCP,ioos:station:wmo:42887:1,2009-11-02T18:40:00Z,28.1910,-88.4960,23.5,11111222 
ADCP,ioos:station:wmo:42887:1,2009-11-02T19:00:00Z,28.1910,-88.4960,23.2,11111222 
ADCP,ioos:station:wmo:42887:1,2009-11-02T19:20:00Z,28.1910,-88.4960,23.4,11111222 
ADCP,ioos:station:wmo:42887:1,2009-11-02T19:40:00Z,28.1910,-88.4960,23.4,11111222 
ADCP,ioos:station:wmo:42887:1,2009-11-02T20:00:00Z,28.1910,-88.4960,23.3,11111222 
ADCP,ioos:station:wmo:42887:1,2009-11-02T20:20:00Z,28.1910,-88.4960,23.2,11111222 
ADCP,ioos:station:wmo:42887:1,2009-11-02T20:40:00Z,28.1910,-88.4960,23.3,11111222 
ADCP,ioos:station:wmo:42887:1,2009-11-02T21:00:00Z,28.1910,-88.4960,22.7,11111222 
ADCP,ioos:station:wmo:42887:1,2009-11-02T21:20:00Z,28.1910,-88.4960,22.6,11111222 
ADCP,ioos:station:wmo:42887:1,2009-11-02T21:40:00Z,28.1910,-88.4960,22.8,11111222 
ADCP,ioos:station:wmo:42887:1,2009-11-02T22:00:00Z,28.1910,-88.4960,22.6,11111222 
ADCP,ioos:station:wmo:42887:1,2009-11-02T22:20:00Z,28.1910,-88.4960,22.4,11111222 
ADCP,ioos:station:wmo:42887:1,2009-11-02T22:40:00Z,28.1910,-88.4960,22.1,11111222 
ADCP,ioos:station:wmo:42887:1,2009-11-02T23:00:00Z,28.1910,-88.4960,22.2,11111222 
ADCP,ioos:station:wmo:42887:1,2009-11-02T23:20:00Z,28.1910,-88.4960,21.6,11111222 
ADCP,ioos:station:wmo:42887:1,2009-11-02T23:40:00Z,28.1910,-88.4960,21.9,11111222 
ADCP,ioos:station:wmo:42887:1,2009-11-03T00:00:00Z,28.1910,-88.4960,22.1,11111222 
ADCP,ioos:station:wmo:42887:1,2009-11-03T00:20:00Z,28.1910,-88.4960,22.0,11111222 
ADCP,ioos:station:wmo:42887:1,2009-11-03T00:40:00Z,28.1910,-88.4960,21.6,11111222 
ADCP,ioos:station:wmo:42887:1,2009-11-03T01:00:00Z,28.1910,-88.4960,21.3,11111222 
ADCP,ioos:station:wmo:42887:1,2009-11-03T01:20:00Z,28.1910,-88.4960,21.5,11111222 
ADCP,ioos:station:wmo:42887:1,2009-11-03T01:40:00Z,28.1910,-88.4960,21.7,11111222 
ADCP,ioos:station:wmo:42887:1,2009-11-03T02:00:00Z,28.1910,-88.4960,21.5,11111222 
ADCP,ioos:station:wmo:42887:1,2009-11-03T02:20:00Z,28.1910,-88.4960,21.7,11111222 
ADCP,ioos:station:wmo:42887:1,2009-11-03T02:40:00Z,28.1910,-88.4960,21.8,11111222 
ADCP,ioos:station:wmo:42887:1,2009-11-03T03:00:00Z,28.1910,-88.4960,21.8,11111222 
ADCP,ioos:station:wmo:42887:1,2009-11-03T03:20:00Z,28.1910,-88.4960,21.9,11111222 
ADCP,ioos:station:wmo:42887:1,2009-11-03T03:40:00Z,28.1910,-88.4960,21.9,11111222 
ADCP,ioos:station:wmo:42887:1,2009-11-03T04:00:00Z,28.1910,-88.4960,22.1,11111222 
ADCP,ioos:station:wmo:42887:1,2009-11-03T04:20:00Z,28.1910,-88.4960,22.2,11111222 
ADCP,ioos:station:wmo:42887:1,2009-11-03T04:40:00Z,28.1910,-88.4960,22.2,11111222 
ADCP,ioos:station:wmo:42887:1,2009-11-03T05:00:00Z,28.1910,-88.4960,22.3,11111222 
ADCP,ioos:station:wmo:42887:1,2009-11-03T05:20:00Z,28.1910,-88.4960,22.1,11111222 
ADCP,ioos:station:wmo:42887:1,2009-11-03T05:40:00Z,28.1910,-88.4960,21.8,11111222 
ADCP,ioos:station:wmo:42887:1,2009-11-03T06:00:00Z,28.1910,-88.4960,21.8,11111222 
ADCP,ioos:station:wmo:42887:1,2009-11-03T06:20:00Z,28.1910,-88.4960,21.9,11111222 
ADCP,ioos:station:wmo:42887:1,2009-11-03T06:40:00Z,28.1910,-88.4960,22.1,11111222 
ADCP,ioos:station:wmo:42887:1,2009-11-03T07:00:00Z,28.1910,-88.4960,21.7,11111222 
ADCP,ioos:station:wmo:42887:1,2009-11-03T07:20:00Z,28.1910,-88.4960,21.8,11111222 
ADCP,ioos:station:wmo:42887:1,2009-11-03T07:40:00Z,28.1910,-88.4960,22.0,11111222 
ADCP,ioos:station:wmo:42887:1,2009-11-03T08:00:00Z,28.1910,-88.4960,21.9,11111222 
ADCP,ioos:station:wmo:42887:1,2009-11-03T08:20:00Z,28.1910,-88.4960,21.9,11111222 
ADCP,ioos:station:wmo:42887:1,2009-11-03T08:40:00Z,28.1910,-88.4960,22.0,11111222 
ADCP,ioos:station:wmo:42887:1,2009-11-03T09:00:00Z,28.1910,-88.4960,22.1,11111222 
ADCP,ioos:station:wmo:42887:1,2009-11-03T09:20:00Z,28.1910,-88.4960,22.1,11111222 
ADCP,ioos:station:wmo:42887:1,2009-11-03T09:40:00Z,28.1910,-88.4960,22.0,11111222 
ADCP,ioos:station:wmo:42887:1,2009-11-03T10:00:00Z,28.1910,-88.4960,22.2,11111222 
ADCP,ioos:station:wmo:42887:1,2009-11-03T10:20:00Z,28.1910,-88.4960,22.2,11111222 
ADCP,ioos:station:wmo:42887:1,2009-11-03T10:40:00Z,28.1910,-88.4960,22.1,11111222 
ADCP,ioos:station:wmo:42887:1,2009-11-03T11:00:00Z,28.1910,-88.4960,22.2,11111222 
ADCP,ioos:station:wmo:42887:1,2009-11-03T11:20:00Z,28.1910,-88.4960,22.1,11111222 
ADCP,ioos:station:wmo:42887:1,2009-11-03T11:40:00Z,28.1910,-88.4960,22.0,11111222 
ADCP,ioos:station:wmo:42887:1,2009-11-03T12:00:00Z,28.1910,-88.4960,22.1,11111222 
ADCP,ioos:station:wmo:42887:1,2009-11-03T12:20:00Z,28.1910,-88.4960,22.1,11111222 
ADCP,ioos:station:wmo:42887:1,2009-11-03T12:40:00Z,28.1910,-88.4960,22.1,11111222 
ADCP,ioos:station:wmo:42887:1,2009-11-03T13:00:00Z,28.1910,-88.4960,22.3,11111222 
ADCP,ioos:station:wmo:42887:1,2009-11-03T13:20:00Z,28.1910,-88.4960,22.0,11111222 
ADCP,ioos:station:wmo:42887:1,2009-11-03T13:40:00Z,28.1910,-88.4960,22.0,11111222 
ADCP,ioos:station:wmo:42887:1,2009-11-03T14:00:00Z,28.1910,-88.4960,22.3,11111222 
ADCP,ioos:station:wmo:42887:1,2009-11-03T14:20:00Z,28.1910,-88.4960,22.5,11111222 
ADCP,ioos:station:wmo:42887:1,2009-11-03T14:40:00Z,28.1910,-88.4960,22.3,11111222 
ADCP,ioos:station:wmo:42887:1,2009-11-03T15:00:00Z,28.1910,-88.4960,22.5,11111222 
ADCP,ioos:station:wmo:42887:1,2009-11-03T15:20:00Z,28.1910,-88.4960,22.7,11111222 
ADCP,ioos:station:wmo:42887:1,2009-11-03T15:40:00Z,28.1910,-88.4960,22.6,11111222 
ADCP,ioos:station:wmo:42887:1,2009-11-03T16:00:00Z,28.1910,-88.4960,22.3,11111222 
ADCP,ioos:station:wmo:42887:1,2009-11-03T16:20:00Z,28.1910,-88.4960,22.4,11111222 
ADCP,ioos:station:wmo:42887:1,2009-11-03T16:40:00Z,28.1910,-88.4960,22.1,11111222 
ADCP,ioos:station:wmo:42887:1,2009-11-03T17:00:00Z,28.1910,-88.4960,22.1,11111222 
ADCP,ioos:station:wmo:42887:1,2009-11-03T17:20:00Z,28.1910,-88.4960,22.2,11111222 
ADCP,ioos:station:wmo:42887:1,2009-11-03T17:40:00Z,28.1910,-88.4960,22.4,11111222 
ADCP,ioos:station:wmo:42887:1,2009-11-03T18:00:00Z,28.1910,-88.4960,22.1,11111222 
ADCP,ioos:station:wmo:42887:1,2009-11-03T18:20:00Z,28.1910,-88.4960,22.1,11111222 
ADCP,ioos:station:wmo:42887:1,2009-11-03T18:40:00Z,28.1910,-88.4960,22.1,11111222 
ADCP,ioos:station:wmo:42887:1,2009-11-03T19:00:00Z,28.1910,-88.4960,22.1,11111222 
ADCP,ioos:station:wmo:42887:1,2009-11-03T19:20:00Z,28.1910,-88.4960,22.1,11111222 
ADCP,ioos:station:wmo:42887:1,2009-11-03T19:40:00Z,28.1910,-88.4960,22.1,11111222 
ADCP,ioos:station:wmo:42887:1,2009-11-03T20:00:00Z,28.1910,-88.4960,22.3,11111222 
ADCP,ioos:station:wmo:42887:1,2009-11-03T20:20:00Z,28.1910,-88.4960,22.0,11111222 
ADCP,ioos:station:wmo:42887:1,2009-11-03T20:40:00Z,28.1910,-88.4960,21.9,11111222 
ADCP,ioos:station:wmo:42887:1,2009-11-03T21:00:00Z,28.1910,-88.4960,21.9,11111222 
ADCP,ioos:station:wmo:42887:1,2009-11-03T21:20:00Z,28.1910,-88.4960,22.1,11111222 
ADCP,ioos:station:wmo:42887:1,2009-11-03T21:40:00Z,28.1910,-88.4960,22.2,11111222 
ADCP,ioos:station:wmo:42887:1,2009-11-03T22:00:00Z,28.1910,-88.4960,22.0,11111222 
ADCP,ioos:station:wmo:42887:1,2009-11-03T22:20:00Z,28.1910,-88.4960,22.3,11111222 
ADCP,ioos:station:wmo:42887:1,2009-11-03T22:40:00Z,28.1910,-88.4960,22.2,11111222 
ADCP,ioos:station:wmo:42887:1,2009-11-03T23:00:00Z,28.1910,-88.4960,22.0,11111222 
ADCP,ioos:station:wmo:42887:1,2009-11-03T23:40:00Z,28.1910,-88.4960,22.2,11111222 
ADCP,ioos:station:wmo:42887:1,2009-11-04T00:00:00Z,28.1910,-88.4960,22.1,11111222 
ADCP,ioos:station:wmo:42887:1,2009-11-04T00:20:00Z,28.1910,-88.4960,22.2,11111222 
ADCP,ioos:station:wmo:42887:1,2009-11-04T00:40:00Z,28.1910,-88.4960,22.2,11111222 
ADCP,ioos:station:wmo:42887:1,2009-11-06T16:00:00Z,28.1910,-88.4960,23.7,11111222 
ADCP,ioos:station:wmo:42887:1,2009-11-06T16:20:00Z,28.1910,-88.4960,23.7,11111222 
ADCP,ioos:station:wmo:42887:1,2009-11-06T16:40:00Z,28.1910,-88.4960,23.6,11111222 
ADCP,ioos:station:wmo:42887:1,2009-11-06T17:00:00Z,28.1910,-88.4960,23.8,11111222 
ADCP,ioos:station:wmo:42887:1,2009-11-06T17:20:00Z,28.1910,-88.4960,23.7,11111222 
ADCP,ioos:station:wmo:42887:1,2009-11-06T17:40:00Z,28.1910,-88.4960,23.9,11111222 
ADCP,ioos:station:wmo:42887:1,2009-11-06T18:20:00Z,28.1910,-88.4960,23.5,11111222 
ADCP,ioos:station:wmo:42887:1,2009-11-06T18:40:00Z,28.1910,-88.4960,23.3,11111222 
ADCP,ioos:station:wmo:42887:1,2009-11-06T19:00:00Z,28.1910,-88.4960,23.7,11111222 
ADCP,ioos:station:wmo:42887:1,2009-11-06T19:20:00Z,28.1910,-88.4960,23.7,11111222 
ADCP,ioos:station:wmo:42887:1,2009-11-06T19:40:00Z,28.1910,-88.4960,23.3,11111222 
ADCP,ioos:station:wmo:42887:1,2009-11-06T20:00:00Z,28.1910,-88.4960,23.3,11111222 
ADCP,ioos:station:wmo:42887:1,2009-11-06T20:20:00Z,28.1910,-88.4960,23.5,11111222 
ADCP,ioos:station:wmo:42887:1,2009-11-06T20:40:00Z,28.1910,-88.4960,23.4,11111222 
ADCP,ioos:station:wmo:42887:1,2009-11-06T21:00:00Z,28.1910,-88.4960,23.5,11111222 
ADCP,ioos:station:wmo:42887:1,2009-11-06T21:20:00Z,28.1910,-88.4960,23.5,11111222 
ADCP,ioos:station:wmo:42887:1,2009-11-06T21:40:00Z,28.1910,-88.4960,23.2,11111222 
ADCP,ioos:station:wmo:42887:1,2009-11-06T22:00:00Z,28.1910,-88.4960,23.0,11111222 
ADCP,ioos:station:wmo:42887:1,2009-11-06T22:20:00Z,28.1910,-88.4960,23.1,11111222 
ADCP,ioos:station:wmo:42887:1,2009-11-06T22:40:00Z,28.1910,-88.4960,22.9,11111222 
ADCP,ioos:station:wmo:42887:1,2009-11-06T23:00:00Z,28.1910,-88.4960,22.9,11111222 
ADCP,ioos:station:wmo:42887:1,2009-11-06T23:20:00Z,28.1910,-88.4960,22.6,11111222 
ADCP,ioos:station:wmo:42887:1,2009-11-06T23:40:00Z,28.1910,-88.4960,22.7,11111222 
ADCP,ioos:station:wmo:42887:1,2009-11-07T00:00:00Z,28.1910,-88.4960,22.6,11111222 
ADCP,ioos:station:wmo:42887:1,2009-11-07T00:20:00Z,28.1910,-88.4960,22.8,11111222 
ADCP,ioos:station:wmo:42887:1,2009-11-07T00:40:00Z,28.1910,-88.4960,22.7,11111222 
ADCP,ioos:station:wmo:42887:1,2009-11-07T01:00:00Z,28.1910,-88.4960,22.7,11111222 
ADCP,ioos:station:wmo:42887:1,2009-11-07T01:20:00Z,28.1910,-88.4960,22.5,11111222 
ADCP,ioos:station:wmo:42887:1,2009-11-07T01:40:00Z,28.1910,-88.4960,22.8,11111222 
ADCP,ioos:station:wmo:42887:1,2009-11-07T02:00:00Z,28.1910,-88.4960,22.6,11111222 
ADCP,ioos:station:wmo:42887:1,2009-11-07T02:20:00Z,28.1910,-88.4960,22.7,11111222 
ADCP,ioos:station:wmo:42887:1,2009-11-07T02:40:00Z,28.1910,-88.4960,22.7,11111222 
ADCP,ioos:station:wmo:42887:1,2009-11-07T03:00:00Z,28.1910,-88.4960,22.6,11111222 
ADCP,ioos:station:wmo:42887:1,2009-11-07T03:20:00Z,28.1910,-88.4960,22.8,11111222 
ADCP,ioos:station:wmo:42887:1,2009-11-07T03:40:00Z,28.1910,-88.4960,22.7,11111222 
ADCP,ioos:station:wmo:42887:1,2009-11-07T04:00:00Z,28.1910,-88.4960,22.9,11111222 
ADCP,ioos:station:wmo:42887:1,2009-11-07T04:20:00Z,28.1910,-88.4960,22.8,11111222 
ADCP,ioos:station:wmo:42887:1,2009-11-07T04:40:00Z,28.1910,-88.4960,23.0,11111222 
ADCP,ioos:station:wmo:42887:1,2009-11-07T05:00:00Z,28.1910,-88.4960,23.1,11111222 
ADCP,ioos:station:wmo:42887:1,2009-11-07T05:20:00Z,28.1910,-88.4960,23.1,11111222 
ADCP,ioos:station:wmo:42887:1,2009-11-07T05:40:00Z,28.1910,-88.4960,23.2,11111222 
ADCP,ioos:station:wmo:42887:1,2009-11-07T06:00:00Z,28.1910,-88.4960,23.3,11111222 
ADCP,ioos:station:wmo:42887:1,2009-11-07T06:20:00Z,28.1910,-88.4960,23.6,11111222 
ADCP,ioos:station:wmo:42887:1,2009-11-07T06:40:00Z,28.1910,-88.4960,23.7,11111222 
ADCP,ioos:station:wmo:42887:1,2009-11-07T07:00:00Z,28.1910,-88.4960,23.8,11111222 
ADCP,ioos:station:wmo:42887:1,2009-11-07T07:20:00Z,28.1910,-88.4960,23.9,11111222 
ADCP,ioos:station:wmo:42887:1,2009-11-07T07:40:00Z,28.1910,-88.4960,24.0,11111222 
ADCP,ioos:station:wmo:42887:1,2009-11-07T08:00:00Z,28.1910,-88.4960,24.0,11111222 
ADCP,ioos:station:wmo:42887:1,2009-11-07T08:40:00Z,28.1910,-88.4960,24.0,11111222 
ADCP,ioos:station:wmo:42887:1,2009-11-07T09:00:00Z,28.1910,-88.4960,23.9,11111222 
ADCP,ioos:station:wmo:42887:1,2009-11-07T09:20:00Z,28.1910,-88.4960,23.9,11111222 
ADCP,ioos:station:wmo:42887:1,2009-11-07T09:40:00Z,28.1910,-88.4960,23.9,11111222 
ADCP,ioos:station:wmo:42887:1,2009-11-07T10:00:00Z,28.1910,-88.4960,24.0,11111222 
ADCP,ioos:station:wmo:42887:1,2009-11-07T10:20:00Z,28.1910,-88.4960,23.9,11111222 
ADCP,ioos:station:wmo:42887:1,2009-11-07T11:00:00Z,28.1910,-88.4960,24.2,11111222 
ADCP,ioos:station:wmo:42887:1,2009-11-07T11:40:00Z,28.1910,-88.4960,24.1,11111222 
ADCP,ioos:station:wmo:42887:1,2009-11-07T12:00:00Z,28.1910,-88.4960,24.3,11111222 
ADCP,ioos:station:wmo:42887:1,2009-11-07T13:00:00Z,28.1910,-88.4960,24.5,11111222 
ADCP,ioos:station:wmo:42887:1,2009-11-07T13:20:00Z,28.1910,-88.4960,24.9,11111222 
ADCP,ioos:station:wmo:42887:1,2009-11-07T13:40:00Z,28.1910,-88.4960,25.0,11111222 
ADCP,ioos:station:wmo:42887:1,2009-11-07T14:00:00Z,28.1910,-88.4960,24.6,11111222 
ADCP,ioos:station:wmo:42887:1,2009-11-07T14:20:00Z,28.1910,-88.4960,24.5,11111222 
ADCP,ioos:station:wmo:42887:1,2009-11-07T14:40:00Z,28.1910,-88.4960,24.5,11111222 
ADCP,ioos:station:wmo:42887:1,2009-11-07T15:00:00Z,28.1910,-88.4960,24.6,11111222 
ADCP,ioos:station:wmo:42887:1,2009-11-07T15:20:00Z,28.1910,-88.4960,24.5,11111222 
ADCP,ioos:station:wmo:42887:1,2009-11-07T16:00:00Z,28.1910,-88.4960,24.6,11111222 
ADCP,ioos:station:wmo:42887:1,2009-11-07T16:40:00Z,28.1910,-88.4960,24.5,11111222 
ADCP,ioos:station:wmo:42887:1,2009-11-07T17:00:00Z,28.1910,-88.4960,24.6,11111222 
ADCP,ioos:station:wmo:42887:1,2009-11-07T17:20:00Z,28.1910,-88.4960,24.5,11111222 
ADCP,ioos:station:wmo:42887:1,2009-11-07T18:00:00Z,28.1910,-88.4960,24.5,11111222 
ADCP,ioos:station:wmo:42887:1,2009-11-07T18:20:00Z,28.1910,-88.4960,24.6,11111222 